Location: Newark
(35.2672°N, 80.7344°W)
Time: 01:22:11
(UTC+00:00)

Tiros 1 - Pass Details

Date: 27 January 2020
Orbit: 631 x 664 km, 48.4° (Epoch: 19 February)

Event Time Altitude Azimuth Distance (km) Brightness Sun altitude
Rises 20:03:35 0° 300° (WNW) 2,950 10.7 25.9°
Reaches altitude 10° 20:06:44 10° 322° (NW) 2,048 9.7 25.4°
Maximum altitude 20:09:42 16° 1° (N) 1,677 9.0 25.1°
Drops below altitude 10° 20:12:41 10° 40° (NE) 2,061 9.3 24.7°
Sets 20:15:52 0° 62° (ENE) 2,979 10.0 24.2°
